Regional Weather Roundup
Issued by NWS New Orleans/Baton Rouge, LA

Home | Current Version | Previous Version | Graphics & Text | Print | Product List | Glossary On
Versions: 1 2 3 4 5 6 7 8 9 10 11 12 13 14 15 16 17 18 19 20 21 22 23 24 25 26 27 28 29 30 31 32 33 34 35 36 37 38 39 40 41 42 43 44 45 46 47 48 49 50
357
ASUS44 KLIX 192201
RWRLIX
NEW ORLEANS REGIONAL WEATHER ROUNDUP
NATIONAL WEATHER SERVICE NEW ORLEANS LA
500 PM CDT FRI SEP 19 2014

NOTE: "FAIR" INDICATES FEW OR NO CLOUDS BELOW 12,000 FEET WITH NO
      SIGNIFICANT WEATHER AND/OR OBSTRUCTIONS TO VISIBILITY.
      SKY/WX - SKY CONDITION AND SIGNIFICANT WEATHER.
      TMP - AIR TEMPERATURE.     DP    - DEWPOINT TEMPERATURE.
      RH  - RELATIVE HUMIDITY.   PRES  - PRESSURE.
      HI  - HEAT INDEX.          WCI   - WIND CHILL INDEX.

*  THESE STATIONS ARE NOT NWS OR FAA STATIONS AND ARE NOT UNDER
   NWS QUALITY CONTROL.

LAZ038-040-048-061>063-065>067-069-192300-
SOUTHEAST LOUISIANA

CITY           SKY/WX    TMP DP  RH WIND       PRES   REMARKS
N.O. AUDUBON     N/A     81  70  68 MISG        N/A
N.O. INTL ARPT MOSUNNY   84  67  56 E16G22    29.92S
N.O. LAKEFRONT MOSUNNY   84  69  60 E15G22    29.92S
N.O. DOWNTOWN*   N/A     82  66  57 SE6       29.92F
SLIDELL        SUNNY     86  65  49 SE12G18   29.92S
BATON ROUGE    MOSUNNY   86  70  58 E10       29.91S
BOOTHVILLE     CLOUDY    82  70  66 E16G22    29.92S
BELLE CHASSE   PTSUNNY   80  68  66 E6        29.91F
BOGALUSA*        N/A     85  67  54 CALM      29.95R
GALLIANO*      NOT AVBL
NEW ROADS*       N/A     86  68  55 E3        29.91F
GONZALES*        N/A     86  68  53 E5        29.91S
HAMMOND*       NOT AVBL
HOUMA*         PTSUNNY   81  59  47 NE12      29.91S
PORT FOURCHON* MOCLDY    81  72  74 E14G24    29.93S

$$

MSZ070-080>082-192300-
SOUTHERN MISSISSIPPI

CITY           SKY/WX    TMP DP  RH WIND       PRES   REMARKS
MCCOMB         MOSUNNY   83  70  64 S7        29.94S
GULFPORT       SUNNY     83  71  67 SE10      29.93S
BILOXI         SUNNY     84  70  61 SE12      29.93S
PASCAGOULA     SUNNY     84  70  62 S8        29.94R

$$

COASTAL OBSERVATIONS
LAKE AND NEARSHORE STATIONS

STATION/POSITION TIME  TEMP    WIND        PRES    WAVE
                       AIR SEA DIR/SP/G            HT/PER
                 (UTC) (F)     (DEG/KT/KT) (MB)    (FT/S)
PASCAGOULA       2100   84     120/ 14/ 17 1013.1
WAVELAND YACHT   2100   83     130/ 12/ 14 1012.9
GRAND ISLE       2100   79 84  100/ 12/ 17 1013.4
SOUTHWEST PASS   2100   81 90   90/ 23/ 27 1012.7
NEW CANAL        2100   83 82   80/  2/  9 1013.7
SHELL BEACH      2100   82 80   90/ 15/ 18 1013.0

OFFSHORE STATIONS

STATION/POSITION TIME  TEMP    WIND        PRES    WAVE
                       AIR SEA DIR/SP/G            HT/PER
                 (UTC) (F)     (DEG/KT/KT) (MB)    (FT/S)
64 S DAUPHIN ISL 2128   80 84   90/ 21/ 25 1013.0    6/ 6

$$




USA.gov is the U.S. government's official web portal to all federal, state and local government web resources and services.